Pomme de Terre River (Missouri), Hermitage (06921350)

StateMissouriLatestHigh (2440 cfs)
RiverPomme de Terre RiverRatingObservedEstimated
Updated2026-05-05 6:45 (51 minutes ago)Flood - The river is flooding. Obstacles can be treacherous or deadly. The river should be avoided at this stage for casual trips and definitely for the inexperienced. Trips should be attempted only with protective gear and equipment.Flood(none)3126
Discharge2440 cfs (median: 594 cfs)High - The river is high and potentially dangerous, especially for the young and / or inexperienced. Normal stream obstacles are sometimes difficult to navigate. Extended distances can be attempted, but canoe travel may not be advisable.High(none)1814
Height7.61 feetGood - Conditions are ideal for a canoe or kayak. Boats typically will drag on fewer than one-quarter of riffles, if at all, and portages are unnecessary or rare. Normal float lengths can be attempted without a problem.Good(none)379
TrendSteady (falling over 24 hours)Low - River is low but can still be floated. Some riffles are okay but most come with significant dragging and might need a portage. Float lengths should be reduced to accommodate low flow, dragging, and portages.Low(none)269
USGSExternal icon USGS Site (External icon Duck Duck Go Maps)Poor - River is too low to float comfortably. Most or all riffles will drag or must be portaged and some obstacles (such as slick shelf rock) cause undue problems. Avoid the river at this stage for casual paddling trips.Poor(none)65

Trending Data

Plot Image

Trips for Pomme de Terre River (Missouri), Hermitage (06921350)

DateStartEndDistanceConditionDischargeHeightFishingDetails

A total of 0 rows are displayed.

Condition Descriptions

Fishing Conditions

Fish Species

Notes

Classic Trip List

The classic River Trips application is still available for use. It is updated with the new system using a data retrofit. It is no longer maintained. The original River Trips application is no longer updated (as of 1 Dec 2016) but can be checked for errors or for the condition of the data before it was converted to the new system.

Gauge Data Table

ObservationHeightDischargeMaximum
Discharge
Minimum
Discharge
Mean
Discharge
P05P10P20P25P50
(Median)
P75P80P90P95
2026-05-05 06:45 7.61 2440 5110 (1961) 27 (1963) 1120 47 54 110 126 594 2010 2130 3170 3540
2026-05-05 05:45 7.61 2440 5110 (1961) 27 (1963) 1120 47 54 110 126 594 2010 2130 3170 3540
2026-05-05 04:45 7.60 2430 5110 (1961) 27 (1963) 1120 47 54 110 126 594 2010 2130 3170 3540
2026-05-05 03:45 7.61 2440 5110 (1961) 27 (1963) 1120 47 54 110 126 594 2010 2130 3170 3540
2026-05-05 02:45 7.59 2420 5110 (1961) 27 (1963) 1120 47 54 110 126 594 2010 2130 3170 3540
2026-05-05 01:45 7.59 2420 5110 (1961) 27 (1963) 1120 47 54 110 126 594 2010 2130 3170 3540
2026-05-05 00:45 7.59 2420 5110 (1961) 27 (1963) 1120 47 54 110 126 594 2010 2130 3170 3540
2026-05-04 23:45 7.60 2430 5110 (1961) 27 (1963) 1120 47 54 110 126 594 2010 2130 3170 3540
2026-05-04 22:45 7.59 2420 5210 (1961) 44 (1975) 1050 51 56 109 119 591 1730 2030 2930 3610
2026-05-04 21:45 7.60 2430 5210 (1961) 44 (1975) 1050 51 56 109 119 591 1730 2030 2930 3610
2026-05-04 20:45 7.60 2430 5210 (1961) 44 (1975) 1050 51 56 109 119 591 1730 2030 2930 3610
2026-05-04 19:45 7.59 2420 5210 (1961) 44 (1975) 1050 51 56 109 119 591 1730 2030 2930 3610
2026-05-04 18:45 7.60 2430 5210 (1961) 44 (1975) 1050 51 56 109 119 591 1730 2030 2930 3610
2026-05-04 17:45 7.61 2440 5210 (1961) 44 (1975) 1050 51 56 109 119 591 1730 2030 2930 3610
2026-05-04 16:45 7.65 2470 5210 (1961) 44 (1975) 1050 51 56 109 119 591 1730 2030 2930 3610
2026-05-04 15:45 7.91 2680 5210 (1961) 44 (1975) 1050 51 56 109 119 591 1730 2030 2930 3610
2026-05-04 14:45 8.23 2950 5210 (1961) 44 (1975) 1050 51 56 109 119 591 1730 2030 2930 3610
2026-05-04 13:45 8.24 2960 5210 (1961) 44 (1975) 1050 51 56 109 119 591 1730 2030 2930 3610
2026-05-04 12:45 8.24 2960 5210 (1961) 44 (1975) 1050 51 56 109 119 591 1730 2030 2930 3610
2026-05-04 11:45 8.23 2950 5210 (1961) 44 (1975) 1050 51 56 109 119 591 1730 2030 2930 3610
2026-05-04 10:45 8.23 2950 5210 (1961) 44 (1975) 1050 51 56 109 119 591 1730 2030 2930 3610
2026-05-04 09:45 8.23 2950 5210 (1961) 44 (1975) 1050 51 56 109 119 591 1730 2030 2930 3610
2026-05-04 08:45 8.23 2950 5210 (1961) 44 (1975) 1050 51 56 109 119 591 1730 2030 2930 3610
2026-05-04 07:45 8.24 2960 5210 (1961) 44 (1975) 1050 51 56 109 119 591 1730 2030 2930 3610
2026-05-04 06:45 8.23 2950 5210 (1961) 44 (1975) 1050 51 56 109 119 591 1730 2030 2930 3610
2026-05-04 05:45 8.23 2950 5210 (1961) 44 (1975) 1050 51 56 109 119 591 1730 2030 2930 3610
2026-05-04 04:45 8.23 2950 5210 (1961) 44 (1975) 1050 51 56 109 119 591 1730 2030 2930 3610
2026-05-04 03:45 8.24 2960 5210 (1961) 44 (1975) 1050 51 56 109 119 591 1730 2030 2930 3610
2026-05-04 02:45 8.24 2960 5210 (1961) 44 (1975) 1050 51 56 109 119 591 1730 2030 2930 3610
2026-05-04 01:45 8.25 2970 5210 (1961) 44 (1975) 1050 51 56 109 119 591 1730 2030 2930 3610
2026-05-04 00:45 8.24 2960 5210 (1961) 44 (1975) 1050 51 56 109 119 591 1730 2030 2930 3610
2026-05-03 23:45 8.25 2970 5210 (1961) 44 (1975) 1050 51 56 109 119 591 1730 2030 2930 3610
2026-05-03 22:45 8.25 2970 5910 (1961) 29 (1963) 1040 47 53 106 113 488 1590 2060 2950 3620
2026-05-03 21:45 8.23 2950 5910 (1961) 29 (1963) 1040 47 53 106 113 488 1590 2060 2950 3620
2026-05-03 20:45 8.24 2960 5910 (1961) 29 (1963) 1040 47 53 106 113 488 1590 2060 2950 3620
2026-05-03 19:45 8.23 2950 5910 (1961) 29 (1963) 1040 47 53 106 113 488 1590 2060 2950 3620
2026-05-03 18:45 8.23 2950 5910 (1961) 29 (1963) 1040 47 53 106 113 488 1590 2060 2950 3620
2026-05-03 17:45 8.25 2970 5910 (1961) 29 (1963) 1040 47 53 106 113 488 1590 2060 2950 3620
2026-05-03 16:45 8.25 2970 5910 (1961) 29 (1963) 1040 47 53 106 113 488 1590 2060 2950 3620
2026-05-03 15:45 8.24 2960 5910 (1961) 29 (1963) 1040 47 53 106 113 488 1590 2060 2950 3620
2026-05-03 14:45 8.25 2970 5910 (1961) 29 (1963) 1040 47 53 106 113 488 1590 2060 2950 3620
2026-05-03 13:45 8.26 2980 5910 (1961) 29 (1963) 1040 47 53 106 113 488 1590 2060 2950 3620
2026-05-03 12:45 8.25 2970 5910 (1961) 29 (1963) 1040 47 53 106 113 488 1590 2060 2950 3620
2026-05-03 11:45 8.25 2970 5910 (1961) 29 (1963) 1040 47 53 106 113 488 1590 2060 2950 3620
2026-05-03 10:45 8.24 2960 5910 (1961) 29 (1963) 1040 47 53 106 113 488 1590 2060 2950 3620
2026-05-03 09:45 8.25 2970 5910 (1961) 29 (1963) 1040 47 53 106 113 488 1590 2060 2950 3620
2026-05-03 08:45 8.26 2980 5910 (1961) 29 (1963) 1040 47 53 106 113 488 1590 2060 2950 3620
2026-05-03 07:45 8.25 2970 5910 (1961) 29 (1963) 1040 47 53 106 113 488 1590 2060 2950 3620
2026-05-03 06:45 8.25 2970 5910 (1961) 29 (1963) 1040 47 53 106 113 488 1590 2060 2950 3620
2026-05-03 05:45 8.25 2970 5910 (1961) 29 (1963) 1040 47 53 106 113 488 1590 2060 2950 3620
2026-05-03 04:45 8.25 2970 5910 (1961) 29 (1963) 1040 47 53 106 113 488 1590 2060 2950 3620
2026-05-03 03:45 8.25 2970 5910 (1961) 29 (1963) 1040 47 53 106 113 488 1590 2060 2950 3620
2026-05-03 02:45 8.26 2980 5910 (1961) 29 (1963) 1040 47 53 106 113 488 1590 2060 2950 3620
2026-05-03 01:45 8.24 2960 5910 (1961) 29 (1963) 1040 47 53 106 113 488 1590 2060 2950 3620
2026-05-03 00:45 8.25 2970 5910 (1961) 29 (1963) 1040 47 53 106 113 488 1590 2060 2950 3620
2026-05-02 23:45 8.25 2970 5910 (1961) 29 (1963) 1040 47 53 106 113 488 1590 2060 2950 3620
2026-05-02 22:45 8.26 2980 6890 (1961) 29 (1963) 1100 47 53 106 110 517 1810 2260 2970 3630
2026-05-02 21:45 8.25 2970 6890 (1961) 29 (1963) 1100 47 53 106 110 517 1810 2260 2970 3630
2026-05-02 20:45 8.27 2990 6890 (1961) 29 (1963) 1100 47 53 106 110 517 1810 2260 2970 3630
2026-05-02 19:45 8.26 2980 6890 (1961) 29 (1963) 1100 47 53 106 110 517 1810 2260 2970 3630
2026-05-02 18:45 8.27 2990 6890 (1961) 29 (1963) 1100 47 53 106 110 517 1810 2260 2970 3630
2026-05-02 17:45 8.26 2980 6890 (1961) 29 (1963) 1100 47 53 106 110 517 1810 2260 2970 3630
2026-05-02 16:45 8.25 2970 6890 (1961) 29 (1963) 1100 47 53 106 110 517 1810 2260 2970 3630
2026-05-02 15:45 8.25 2970 6890 (1961) 29 (1963) 1100 47 53 106 110 517 1810 2260 2970 3630
2026-05-02 14:45 8.26 2980 6890 (1961) 29 (1963) 1100 47 53 106 110 517 1810 2260 2970 3630
2026-05-02 13:45 8.26 2980 6890 (1961) 29 (1963) 1100 47 53 106 110 517 1810 2260 2970 3630
2026-05-02 12:45 8.27 2990 6890 (1961) 29 (1963) 1100 47 53 106 110 517 1810 2260 2970 3630
2026-05-02 11:45 8.26 2980 6890 (1961) 29 (1963) 1100 47 53 106 110 517 1810 2260 2970 3630
2026-05-02 10:45 8.27 2990 6890 (1961) 29 (1963) 1100 47 53 106 110 517 1810 2260 2970 3630
2026-05-02 09:45 8.27 2990 6890 (1961) 29 (1963) 1100 47 53 106 110 517 1810 2260 2970 3630
2026-05-02 08:45 8.26 2980 6890 (1961) 29 (1963) 1100 47 53 106 110 517 1810 2260 2970 3630
2026-05-02 07:45 8.25 2970 6890 (1961) 29 (1963) 1100 47 53 106 110 517 1810 2260 2970 3630
2026-05-02 06:45 8.26 2980 6890 (1961) 29 (1963) 1100 47 53 106 110 517 1810 2260 2970 3630
2026-05-02 05:45 8.26 2980 6890 (1961) 29 (1963) 1100 47 53 106 110 517 1810 2260 2970 3630
2026-05-02 04:45 8.26 2980 6890 (1961) 29 (1963) 1100 47 53 106 110 517 1810 2260 2970 3630
2026-05-02 03:45 8.27 2990 6890 (1961) 29 (1963) 1100 47 53 106 110 517 1810 2260 2970 3630
2026-05-02 02:45 8.26 2980 6890 (1961) 29 (1963) 1100 47 53 106 110 517 1810 2260 2970 3630
2026-05-02 01:45 8.27 2990 6890 (1961) 29 (1963) 1100 47 53 106 110 517 1810 2260 2970 3630
2026-05-02 00:45 8.26 2980 6890 (1961) 29 (1963) 1100 47 53 106 110 517 1810 2260 2970 3630
2026-05-01 23:45 8.26 2980 6890 (1961) 29 (1963) 1100 47 53 106 110 517 1810 2260 2970 3630
2026-05-01 22:45 8.27 2990 5910 (1961) 29 (1963) 1110 44 52 94 107 453 2010 2510 3080 3640
2026-05-01 21:45 8.26 2980 5910 (1961) 29 (1963) 1110 44 52 94 107 453 2010 2510 3080 3640
2026-05-01 20:45 8.26 2980 5910 (1961) 29 (1963) 1110 44 52 94 107 453 2010 2510 3080 3640
2026-05-01 19:45 8.27 2990 5910 (1961) 29 (1963) 1110 44 52 94 107 453 2010 2510 3080 3640
2026-05-01 18:45 8.26 2980 5910 (1961) 29 (1963) 1110 44 52 94 107 453 2010 2510 3080 3640
2026-05-01 17:45 8.28 3000 5910 (1961) 29 (1963) 1110 44 52 94 107 453 2010 2510 3080 3640
2026-05-01 16:45 8.28 3000 5910 (1961) 29 (1963) 1110 44 52 94 107 453 2010 2510 3080 3640
2026-05-01 15:45 8.27 2990 5910 (1961) 29 (1963) 1110 44 52 94 107 453 2010 2510 3080 3640
2026-05-01 14:45 8.27 2990 5910 (1961) 29 (1963) 1110 44 52 94 107 453 2010 2510 3080 3640
2026-05-01 13:45 8.26 2980 5910 (1961) 29 (1963) 1110 44 52 94 107 453 2010 2510 3080 3640
2026-05-01 12:45 8.27 2990 5910 (1961) 29 (1963) 1110 44 52 94 107 453 2010 2510 3080 3640
2026-05-01 11:45 8.28 3000 5910 (1961) 29 (1963) 1110 44 52 94 107 453 2010 2510 3080 3640
2026-05-01 10:45 8.28 3000 5910 (1961) 29 (1963) 1110 44 52 94 107 453 2010 2510 3080 3640
2026-05-01 09:45 8.27 2990 5910 (1961) 29 (1963) 1110 44 52 94 107 453 2010 2510 3080 3640
2026-05-01 08:45 8.27 2990 5910 (1961) 29 (1963) 1110 44 52 94 107 453 2010 2510 3080 3640
2026-05-01 07:45 8.27 2990 5910 (1961) 29 (1963) 1110 44 52 94 107 453 2010 2510 3080 3640
2026-05-01 06:45 8.28 3000 5910 (1961) 29 (1963) 1110 44 52 94 107 453 2010 2510 3080 3640
2026-05-01 05:45 8.26 2980 5910 (1961) 29 (1963) 1110 44 52 94 107 453 2010 2510 3080 3640
2026-05-01 04:45 8.29 3010 5910 (1961) 29 (1963) 1110 44 52 94 107 453 2010 2510 3080 3640
2026-05-01 03:45 8.28 3000 5910 (1961) 29 (1963) 1110 44 52 94 107 453 2010 2510 3080 3640
2026-05-01 02:45 8.26 2980 5910 (1961) 29 (1963) 1110 44 52 94 107 453 2010 2510 3080 3640
2026-05-01 01:45 8.28 3000 5910 (1961) 29 (1963) 1110 44 52 94 107 453 2010 2510 3080 3640
2026-05-01 00:45 8.28 3000 5910 (1961) 29 (1963) 1110 44 52 94 107 453 2010 2510 3080 3640
2026-04-30 23:45 8.29 3010 5910 (1961) 29 (1963) 1110 44 52 94 107 453 2010 2510 3080 3640
2026-04-30 22:45 8.28 3000 3690 (2011) 30 (1963) 966 47 53 106 118 502 1730 2010 2780 3120
2026-04-30 21:45 8.28 3000 3690 (2011) 30 (1963) 966 47 53 106 118 502 1730 2010 2780 3120
2026-04-30 20:45 8.28 3000 3690 (2011) 30 (1963) 966 47 53 106 118 502 1730 2010 2780 3120
2026-04-30 19:45 8.27 2990 3690 (2011) 30 (1963) 966 47 53 106 118 502 1730 2010 2780 3120
2026-04-30 18:45 8.26 2980 3690 (2011) 30 (1963) 966 47 53 106 118 502 1730 2010 2780 3120
2026-04-30 17:45 8.28 3000 3690 (2011) 30 (1963) 966 47 53 106 118 502 1730 2010 2780 3120
2026-04-30 16:45 8.29 3010 3690 (2011) 30 (1963) 966 47 53 106 118 502 1730 2010 2780 3120
2026-04-30 15:45 8.29 3010 3690 (2011) 30 (1963) 966 47 53 106 118 502 1730 2010 2780 3120
2026-04-30 14:45 8.28 3000 3690 (2011) 30 (1963) 966 47 53 106 118 502 1730 2010 2780 3120
2026-04-30 13:45 8.27 2990 3690 (2011) 30 (1963) 966 47 53 106 118 502 1730 2010 2780 3120
2026-04-30 12:45 8.28 3000 3690 (2011) 30 (1963) 966 47 53 106 118 502 1730 2010 2780 3120
2026-04-30 11:45 8.27 2990 3690 (2011) 30 (1963) 966 47 53 106 118 502 1730 2010 2780 3120
2026-04-30 10:45 8.29 3010 3690 (2011) 30 (1963) 966 47 53 106 118 502 1730 2010 2780 3120
2026-04-30 09:45 8.28 3000 3690 (2011) 30 (1963) 966 47 53 106 118 502 1730 2010 2780 3120
2026-04-30 08:45 8.29 3010 3690 (2011) 30 (1963) 966 47 53 106 118 502 1730 2010 2780 3120
2026-04-30 07:45 8.28 3000 3690 (2011) 30 (1963) 966 47 53 106 118 502 1730 2010 2780 3120
2026-04-30 06:45 8.29 3010 3690 (2011) 30 (1963) 966 47 53 106 118 502 1730 2010 2780 3120
2026-04-30 05:45 8.29 3010 3690 (2011) 30 (1963) 966 47 53 106 118 502 1730 2010 2780 3120
2026-04-30 04:45 8.30 3020 3690 (2011) 30 (1963) 966 47 53 106 118 502 1730 2010 2780 3120
2026-04-30 03:45 8.29 3010 3690 (2011) 30 (1963) 966 47 53 106 118 502 1730 2010 2780 3120
2026-04-30 02:45 8.30 3020 3690 (2011) 30 (1963) 966 47 53 106 118 502 1730 2010 2780 3120
2026-04-30 01:45 8.29 3010 3690 (2011) 30 (1963) 966 47 53 106 118 502 1730 2010 2780 3120
2026-04-30 00:45 8.28 3000 3690 (2011) 30 (1963) 966 47 53 106 118 502 1730 2010 2780 3120
2026-04-29 23:45 8.29 3010 3690 (2011) 30 (1963) 966 47 53 106 118 502 1730 2010 2780 3120
2026-04-29 22:45 8.30 3020 3700 (2011) 31 (1963) 884 44 53 107 121 429 1600 1930 2430 2910
2026-04-29 21:45 8.29 3010 3700 (2011) 31 (1963) 884 44 53 107 121 429 1600 1930 2430 2910
2026-04-29 20:45 8.29 3010 3700 (2011) 31 (1963) 884 44 53 107 121 429 1600 1930 2430 2910
2026-04-29 19:45 8.29 3010 3700 (2011) 31 (1963) 884 44 53 107 121 429 1600 1930 2430 2910
2026-04-29 18:45 8.29 3010 3700 (2011) 31 (1963) 884 44 53 107 121 429 1600 1930 2430 2910
2026-04-29 17:45 8.29 3010 3700 (2011) 31 (1963) 884 44 53 107 121 429 1600 1930 2430 2910
2026-04-29 16:45 8.30 3020 3700 (2011) 31 (1963) 884 44 53 107 121 429 1600 1930 2430 2910
2026-04-29 15:45 8.31 3030 3700 (2011) 31 (1963) 884 44 53 107 121 429 1600 1930 2430 2910
2026-04-29 14:45 8.29 3010 3700 (2011) 31 (1963) 884 44 53 107 121 429 1600 1930 2430 2910
2026-04-29 13:45 8.30 3020 3700 (2011) 31 (1963) 884 44 53 107 121 429 1600 1930 2430 2910
2026-04-29 12:45 8.30 3020 3700 (2011) 31 (1963) 884 44 53 107 121 429 1600 1930 2430 2910
2026-04-29 11:45 8.29 3010 3700 (2011) 31 (1963) 884 44 53 107 121 429 1600 1930 2430 2910
2026-04-29 10:45 8.29 3010 3700 (2011) 31 (1963) 884 44 53 107 121 429 1600 1930 2430 2910
2026-04-29 09:45 8.29 3010 3700 (2011) 31 (1963) 884 44 53 107 121 429 1600 1930 2430 2910
2026-04-29 08:45 8.25 2970 3700 (2011) 31 (1963) 884 44 53 107 121 429 1600 1930 2430 2910
2026-04-29 07:45 8.03 2780 3700 (2011) 31 (1963) 884 44 53 107 121 429 1600 1930 2430 2910
2026-04-29 06:45 7.08 2040 3700 (2011) 31 (1963) 884 44 53 107 121 429 1600 1930 2430 2910
2026-04-29 05:45 7.09 2040 3700 (2011) 31 (1963) 884 44 53 107 121 429 1600 1930 2430 2910
2026-04-29 04:45 7.08 2040 3700 (2011) 31 (1963) 884 44 53 107 121 429 1600 1930 2430 2910
2026-04-29 03:45 7.08 2040 3700 (2011) 31 (1963) 884 44 53 107 121 429 1600 1930 2430 2910
2026-04-29 02:45 7.08 2040 3700 (2011) 31 (1963) 884 44 53 107 121 429 1600 1930 2430 2910
2026-04-29 01:45 7.07 2030 3700 (2011) 31 (1963) 884 44 53 107 121 429 1600 1930 2430 2910
2026-04-29 00:45 7.09 2040 3700 (2011) 31 (1963) 884 44 53 107 121 429 1600 1930 2430 2910
2026-04-28 23:45 7.08 2040 3700 (2011) 31 (1963) 884 44 53 107 121 429 1600 1930 2430 2910
2026-04-28 22:45 7.09 2040 3700 (2011) 30 (1963) 934 47 54 106 121 454 1560 1890 2770 3190
2026-04-28 21:45 7.07 2030 3700 (2011) 30 (1963) 934 47 54 106 121 454 1560 1890 2770 3190
2026-04-28 20:45 7.08 2040 3700 (2011) 30 (1963) 934 47 54 106 121 454 1560 1890 2770 3190
2026-04-28 19:45 7.08 2040 3700 (2011) 30 (1963) 934 47 54 106 121 454 1560 1890 2770 3190
2026-04-28 18:45 7.09 2040 3700 (2011) 30 (1963) 934 47 54 106 121 454 1560 1890 2770 3190
2026-04-28 17:45 7.09 2040 3700 (2011) 30 (1963) 934 47 54 106 121 454 1560 1890 2770 3190
2026-04-28 16:45 7.08 2040 3700 (2011) 30 (1963) 934 47 54 106 121 454 1560 1890 2770 3190
2026-04-28 15:45 7.10 2050 3700 (2011) 30 (1963) 934 47 54 106 121 454 1560 1890 2770 3190
2026-04-28 14:45 7.15 2090 3700 (2011) 30 (1963) 934 47 54 106 121 454 1560 1890 2770 3190
2026-04-28 13:45 7.40 2270 3700 (2011) 30 (1963) 934 47 54 106 121 454 1560 1890 2770 3190
2026-04-28 12:45 8.32 3030 3700 (2011) 30 (1963) 934 47 54 106 121 454 1560 1890 2770 3190
2026-04-28 11:45 8.31 3030 3700 (2011) 30 (1963) 934 47 54 106 121 454 1560 1890 2770 3190
2026-04-28 10:45 8.32 3030 3700 (2011) 30 (1963) 934 47 54 106 121 454 1560 1890 2770 3190
2026-04-28 09:45 8.31 3030 3700 (2011) 30 (1963) 934 47 54 106 121 454 1560 1890 2770 3190
2026-04-28 08:45 8.31 3030 3700 (2011) 30 (1963) 934 47 54 106 121 454 1560 1890 2770 3190
2026-04-28 07:45 8.33 3040 3700 (2011) 30 (1963) 934 47 54 106 121 454 1560 1890 2770 3190
2026-04-28 06:45 8.32 3030 3700 (2011) 30 (1963) 934 47 54 106 121 454 1560 1890 2770 3190
2026-04-28 05:45 8.31 3030 3700 (2011) 30 (1963) 934 47 54 106 121 454 1560 1890 2770 3190
2026-04-28 04:45 8.32 3030 3700 (2011) 30 (1963) 934 47 54 106 121 454 1560 1890 2770 3190
2026-04-28 03:45 8.32 3030 3700 (2011) 30 (1963) 934 47 54 106 121 454 1560 1890 2770 3190
2026-04-28 02:45 8.33 3040 3700 (2011) 30 (1963) 934 47 54 106 121 454 1560 1890 2770 3190
2026-04-28 01:45 8.32 3030 3700 (2011) 30 (1963) 934 47 54 106 121 454 1560 1890 2770 3190
2026-04-28 00:45 8.31 3030 3700 (2011) 30 (1963) 934 47 54 106 121 454 1560 1890 2770 3190
2026-04-27 23:45 8.33 3040 3700 (2011) 30 (1963) 934 47 54 106 121 454 1560 1890 2770 3190

A total of 176 rows are displayed for years 1961 through 2025.